Weather History for PAGM - January, 2013

Change the Weather History Date:

Tuesday, January 15, 2013

  Actual Average Record
Temperature  
Mean Temperature 2 °F -  
Max Temperature 5 °F 9 °F 62 °F (2005)
Min Temperature 0 °F 1 °F -16 °F (1999)
Degree Days  
Heating Degree Days 62    
Moisture  
Dew Point -1 °F    
Average Humidity 84    
Maximum Humidity 92    
Minimum Humidity 72    
Precipitation  
Precipitation 0.00 in - - ()
Sea Level Pressure  
Sea Level Pressure 30.02 in    
Wind  
Wind Speed 18 mph (West)    
Max Wind Speed 24 mph    
Max Gust Speed 30 mph    
Visibility 6 miles    
Events      
Averages and records for this station are not official NWS values.
T = Trace of Precipitation, MM = Missing Value Source: NWS Daily Summary

Daily Weather History Graph

Daily Weather History Graph

Search for Another Location

Airport or City:

Trip Planner

Search our weather history database for the weather conditions in past years. The results will help you decide how hot, cold, wet, or windy it might be!

Date:

Astronomy

Jan. 15, 2013 Rise Set
Actual Time 11:48 AM AKST 5:25 PM AKST
Civil Twilight 10:43 AM AKST 6:30 PM AKST
Nautical Twilight 9:40 AM AKST 7:33 PM AKST
Astronomical Twilight 8:43 AM AKST 8:30 PM AKST
Moon 11:59 AM AKST (1/15) No Moon Set
Length of Visible Light 7h 47m
Length of Day
5h 37m
Waxing Crescent, 20% of the Moon is Illuminated
Jan 15
Waxing Crescent
Jan 18
First Quarter
Jan 26
Full
Feb 3
Last Quarter
Feb 9
New

Hourly Weather History & Observations

Time (AKST) Temp. Windchill Dew Point Humidity Pressure Visibility Wind Dir Wind Speed Gust Speed Precip Events Conditions
12:16 AM 1.4 °F -19.4 °F -2.2 °F 85% 29.75 in 9.0 mi WSW 18.4 mph 25.3 mph N/A   Overcast
12:36 AM 1.4 °F -19.9 °F -4.0 °F 78% 29.76 in 10.0 mi West 19.6 mph 23.0 mph N/A   Overcast
12:56 AM 1.4 °F -19.9 °F -2.2 °F 85% 29.77 in 10.0 mi West 19.6 mph - N/A   Overcast
1:16 AM 1.4 °F -19.4 °F -2.2 °F 85% 29.78 in 2.0 mi WSW 18.4 mph 24.2 mph N/A   Overcast
1:36 AM -0.4 °F -22.3 °F -4.0 °F 85% 29.79 in 8.0 mi West 19.6 mph 26.5 mph N/A   Overcast
1:56 AM -0.4 °F -21.7 °F -2.2 °F 92% 29.80 in 9.0 mi WSW 18.4 mph 24.2 mph N/A   Overcast
2:16 AM -0.4 °F -22.3 °F -5.8 °F 78% 29.80 in 5.0 mi WSW 19.6 mph 25.3 mph N/A   Overcast
2:36 AM -0.4 °F -22.3 °F -5.8 °F 78% 29.80 in 8.0 mi West 19.6 mph 24.2 mph N/A   Overcast
2:56 AM -0.4 °F -23.3 °F -4.0 °F 85% 29.81 in 5.0 mi West 21.9 mph - N/A   Overcast
3:16 AM -0.4 °F -21.7 °F -2.2 °F 92% 29.82 in 1.0 mi West 18.4 mph 23.0 mph N/A   Overcast
3:36 AM -0.4 °F -21.2 °F -5.8 °F 78% 29.83 in 4.0 mi West 17.3 mph 26.5 mph N/A   Overcast
3:56 AM -0.4 °F -23.8 °F -5.8 °F 78% 29.83 in 3.0 mi West 23.0 mph 27.6 mph N/A   Overcast
4:16 AM -0.4 °F -23.3 °F -5.8 °F 78% 29.84 in 5.0 mi West 21.9 mph 28.8 mph N/A   Overcast
4:36 AM -0.4 °F -22.8 °F -7.6 °F 72% 29.85 in 3.0 mi West 20.7 mph 27.6 mph N/A   Overcast
4:56 AM -0.4 °F -24.3 °F -5.8 °F 78% 29.86 in 6.0 mi West 24.2 mph 28.8 mph N/A   Overcast
5:16 AM -0.4 °F -22.3 °F -5.8 °F 78% 29.86 in 9.0 mi West 19.6 mph 29.9 mph N/A   Overcast
5:36 AM -0.4 °F -23.3 °F -5.8 °F 78% 29.87 in 5.0 mi West 21.9 mph 26.5 mph N/A   Overcast
5:56 AM -0.4 °F -22.8 °F -4.0 °F 85% 29.88 in 1.8 mi West 20.7 mph 28.8 mph N/A   Overcast
6:16 AM -0.4 °F -20.5 °F -5.8 °F 78% 29.88 in 2.0 mi West 16.1 mph 25.3 mph N/A   Overcast
6:36 AM -0.4 °F -23.8 °F -4.0 °F 85% 29.89 in 1.2 mi West 23.0 mph 27.6 mph N/A   Overcast
6:56 AM -0.4 °F -24.3 °F -2.2 °F 92% 29.89 in 2.0 mi West 24.2 mph - N/A   Overcast
7:16 AM -0.4 °F -21.7 °F -5.8 °F 78% 29.91 in 4.0 mi West 18.4 mph 25.3 mph N/A   Overcast
7:36 AM -0.4 °F -21.7 °F -5.8 °F 78% 29.91 in 1.0 mi West 18.4 mph 27.6 mph N/A   Overcast
7:56 AM -0.4 °F -22.8 °F -2.2 °F 92% 29.92 in 0.8 mi West 20.7 mph - N/A   Overcast
8:16 AM -0.4 °F -21.2 °F -7.6 °F 72% 29.92 in 5.0 mi West 17.3 mph 21.9 mph N/A   Overcast
8:36 AM -0.4 °F -21.2 °F -2.2 °F 92% 29.93 in 1.5 mi West 17.3 mph 25.3 mph N/A   Overcast
8:56 AM 1.4 °F -19.9 °F -5.8 °F 72% 29.93 in 4.0 mi West 19.6 mph 24.2 mph N/A   Overcast
9:16 AM 1.4 °F -19.4 °F -2.2 °F 85% 29.94 in 3.0 mi West 18.4 mph 21.9 mph N/A   Overcast
9:36 AM 1.4 °F -18.8 °F -0.4 °F 92% 29.95 in 1.8 mi West 17.3 mph 25.3 mph N/A   Overcast
9:56 AM 1.4 °F -18.8 °F -2.2 °F 85% 29.95 in 2.5 mi West 17.3 mph 21.9 mph N/A   Overcast
10:16 AM 1.4 °F -18.2 °F -0.4 °F 92% 29.96 in 5.0 mi West 16.1 mph 20.7 mph N/A   Overcast
10:36 AM 3.2 °F -15.3 °F -0.4 °F 85% 29.98 in 4.0 mi West 15.0 mph 21.9 mph N/A   Overcast
10:56 AM 3.2 °F -17.1 °F -0.4 °F 85% 29.99 in 4.0 mi West 18.4 mph 21.9 mph N/A   Overcast
11:16 AM 3.2 °F -16.5 °F -0.4 °F 85% 30.00 in 4.0 mi West 17.3 mph 21.9 mph N/A   Overcast
11:36 AM 3.2 °F -17.6 °F 1.4 °F 92% 30.00 in 5.0 mi West 19.6 mph 23.0 mph N/A   Overcast
11:56 AM 3.2 °F -18.1 °F 1.4 °F 92% 30.02 in 5.0 mi West 20.7 mph 24.2 mph N/A   Overcast
12:16 PM 5.0 °F -14.7 °F 1.4 °F 85% 30.03 in 5.0 mi West 18.4 mph 24.2 mph N/A   Overcast
12:36 PM 5.0 °F -13.0 °F 1.4 °F 85% 30.03 in 5.0 mi West 15.0 mph 20.7 mph N/A   Overcast
12:56 PM 5.0 °F -11.6 °F 1.4 °F 85% 30.04 in 5.0 mi West 12.7 mph - N/A   Overcast
1:16 PM 5.0 °F -13.6 °F 1.4 °F 85% 30.06 in 5.0 mi West 16.1 mph 19.6 mph N/A   Overcast
1:36 PM 5.0 °F -14.2 °F 3.2 °F 92% 30.06 in 7.0 mi West 17.3 mph - N/A   Overcast
1:56 PM 5.0 °F -13.6 °F -0.4 °F 78% 30.07 in 9.0 mi West 16.1 mph - N/A   Mostly Cloudy
2:16 PM 5.0 °F -12.3 °F 1.4 °F 85% 30.08 in 9.0 mi West 13.8 mph - N/A   Scattered Clouds
2:36 PM 5.0 °F -12.3 °F 1.4 °F 85% 30.10 in 8.0 mi West 13.8 mph 20.7 mph N/A   Overcast
2:56 PM 5.0 °F -13.0 °F 1.4 °F 85% 30.11 in 8.0 mi West 15.0 mph - N/A   Overcast
3:16 PM 5.0 °F -13.6 °F 1.4 °F 85% 30.12 in 8.0 mi West 16.1 mph - N/A   Overcast
3:36 PM 5.0 °F -13.0 °F 1.4 °F 85% 30.12 in 9.0 mi West 15.0 mph - N/A   Mostly Cloudy
3:56 PM 5.0 °F -9.1 °F -0.4 °F 78% 30.14 in 8.0 mi West 9.2 mph - N/A   Mostly Cloudy
4:16 PM 5.0 °F -10.0 °F 3.2 °F 92% 30.14 in 8.0 mi West 10.4 mph 16.1 mph N/A   Mostly Cloudy
4:36 PM 5.0 °F -11.6 °F 1.4 °F 85% 30.15 in 8.0 mi West 12.7 mph - N/A   Overcast
4:56 PM 5.0 °F -11.6 °F 1.4 °F 85% 30.16 in 8.0 mi West 12.7 mph - N/A   Overcast
5:16 PM 5.0 °F -11.6 °F 1.4 °F 85% 30.16 in 7.0 mi West 12.7 mph - N/A   Overcast
5:36 PM 5.0 °F -13.0 °F 1.4 °F 85% 30.17 in 8.0 mi WNW 15.0 mph - N/A   Overcast
5:56 PM 5.0 °F -11.6 °F 1.4 °F 85% 30.17 in 7.0 mi West 12.7 mph 17.3 mph N/A   Overcast
6:16 PM 5.0 °F -11.6 °F 3.2 °F 92% 30.18 in 7.0 mi West 12.7 mph - N/A   Overcast
6:36 PM 5.0 °F -9.1 °F 1.4 °F 85% 30.19 in 7.0 mi West 9.2 mph - N/A   Overcast
6:56 PM 5.0 °F -9.1 °F 1.4 °F 85% 30.20 in 7.0 mi West 9.2 mph - N/A   Overcast
7:16 PM 5.0 °F -10.0 °F 1.4 °F 85% 30.20 in 8.0 mi West 10.4 mph - N/A   Overcast
7:36 PM 5.0 °F -10.0 °F 1.4 °F 85% 30.21 in 7.0 mi West 10.4 mph - N/A   Overcast
7:56 PM 5.0 °F -10.0 °F 1.4 °F 85% 30.21 in 7.0 mi West 10.4 mph - N/A   Overcast
8:16 PM 5.0 °F -9.1 °F 1.4 °F 85% 30.21 in 7.0 mi West 9.2 mph - N/A   Overcast
8:36 PM 5.0 °F -11.6 °F 1.4 °F 85% 30.22 in 7.0 mi West 12.7 mph - N/A   Overcast
9:16 PM 5.0 °F -12.3 °F 1.4 °F 85% 30.24 in 7.0 mi West 13.8 mph - N/A   Overcast
9:36 PM 5.0 °F -10.8 °F 1.4 °F 85% 30.24 in 6.0 mi West 11.5 mph - N/A   Overcast
9:56 PM 5.0 °F -9.1 °F 1.4 °F 85% 30.25 in 5.0 mi West 9.2 mph - N/A   Overcast
10:16 PM 5.0 °F -10.8 °F 1.4 °F 85% 30.25 in 5.0 mi West 11.5 mph - N/A   Overcast
10:36 PM 5.0 °F -13.0 °F 1.4 °F 85% 30.25 in 6.0 mi West 15.0 mph - N/A   Overcast
10:56 PM 5.0 °F -10.8 °F 1.4 °F 85% 30.26 in 5.0 mi West 11.5 mph 17.3 mph N/A   Overcast
11:16 PM 5.0 °F -11.6 °F 1.4 °F 85% 30.26 in 7.0 mi West 12.7 mph - N/A   Overcast
11:36 PM 5.0 °F -13.6 °F 1.4 °F 85% 30.27 in 6.0 mi WNW 16.1 mph - N/A   Overcast
11:56 PM 5.0 °F -11.6 °F 1.4 °F 85% 30.27 in 6.0 mi West 12.7 mph - N/A   Overcast